Wind_Speed
6 5 4 3 3 4 3 3 3 3 4 5 5 6 5 6 7 8 9 10 11 11 12 13 13 14 14 15 16 16 17 17 18 19 19 20 20 20 19 19 20 20 20 19 19 18 17 17 17
7 5 4 3 4 4 3 4 4 4 4 5 6 7 6 7 9 10 11 12 12 12 13 14 15 16 16 17 17 18 18 19 20 21 21 22 23 24 22 22 22 22 22 21 20 20 19 18 17
8 7 5 5 5 5 5 4 4 5 6 6 7 7 8 8 10 11 12 13 14 14 15 16 17 17 17 18 19 19 20 21 22 23 23 23 23 25 25 25 25 24 23 23 22 21 20 19 18
10 8 7 6 7 6 5 5 5 6 6 7 7 8 9 10 11 12 13 14 15 15 16 17 17 17 18 18 19 20 21 22 23 24 24 24 25 25 26 27 26 25 24 24 24 23 22 20 20
10 9 8 8 8 7 6 5 6 6 6 7 8 8 10 11 12 13 14 15 15 15 16 16 16 16 17 17 18 19 20 21 22 23 24 25 26 26 26 26 27 26 26 26 25 25 23 22 20
12 11 9 9 9 8 7 7 7 6 7 9 9 10 11 11 12 13 14 14 14 14 15 15 16 16 16 16 17 18 19 20 21 22 23 24 24 26 26 27 26 27 27 27 26 26 25 24 22
13 13 11 11 10 9 7 7 6 7 9 10 11 11 11 12 12 13 13 13 14 14 14 14 14 14 15 15 16 16 17 18 18 20 21 22 24 25 26 27 29 28 28 29 29 28 27 26 24
14 14 13 13 12 9 8 8 8 9 9 10 12 12 11 12 12 12 12 13 13 13 14 13 13 13 13 14 15 15 16 16 17 18 19 21 22 23 24 27 28 29 29 29 29 28 28 28 26
17 14 13 13 12 10 9 9 9 10 11 11 12 13 12 12 12 12 12 12 12 12 12 12 12 12 12 13 13 15 15 16 17 18 19 20 21 22 23 25 27 28 28 29 29 28 28 27 26
19 17 14 14 12 10 9 9 10 11 12 13 12 12 12 13 12 12 12 12 11 11 11 11 11 11 12 13 14 15 16 17 17 18 19 20 20 21 22 23 24 26 27 28 28 28 28 27 27
19 18 15 13 11 9 9 10 11 13 13 13 12 12 12 12 12 12 12 11 10 10 10 11 11 11 12 14 15 16 17 17 18 18 19 20 21 21 21 22 23 24 25 26 26 27 27 27 28
18 17 15 13 12 11 11 11 12 13 13 13 12 13 13 12 12 11 10 9 9 9 9 10 11 12 13 14 16 17 18 18 19 19 20 20 21 21 20 21 21 22 22 23 23 24 26 26 26
18 16 15 15 14 13 13 13 14 14 13 13 13 13 12 12 11 10 9 8 8 9 9 10 10 11 13 15 17 18 19 19 20 20 20 21 21 21 20 20 20 20 20 21 22 23 24 24 24
18 16 15 14 13 13 13 14 14 14 14 13 13 13 12 12 10 9 9 8 8 8 9 9 10 11 13 15 17 18 19 20 21 21 21 21 21 21 20 19 18 17 17 18 20 21 23 24 24
15 15 14 13 12 12 13 13 13 13 13 13 13 12 11 10 10 9 8 8 7 7 8 9 10 12 14 15 17 19 20 21 21 21 21 21 21 20 19 18 16 15 15 16 17 19 21 22 22
15 14 14 13 12 12 13 14 13 13 13 12 13 11 10 10 10 9 8 7 7 7 8 9 10 12 14 16 17 19 20 21 21 21 21 21 21 20 19 18 15 14 14 14 14 16 18 19 20
14 12 12 12 12 12 13 13 13 13 12 12 12 11 10 10 10 9 7 7 7 7 8 9 10 12 14 15 17 19 20 21 21 21 21 21 20 20 19 17 15 13 12 12 12 13 15 17 18
12 11 12 13 13 12 13 13 13 12 12 12 11 11 11 10 10 8 7 7 7 7 8 9 10 11 13 15 17 19 20 21 21 21 21 21 20 20 18 17 15 13 11 10 9 11 13 14 16
12 12 11 11 12 12 12 12 12 12 11 11 12 11 11 11 10 8 8 8 7 8 8 9 10 12 14 15 17 19 20 21 21 21 20 20 20 20 18 17 15 12 10 8 7 8 10 12 14
13 13 13 12 12 11 10 11 12 12 12 11 12 12 12 12 11 9 9 8 8 8 8 9 10 12 14 15 17 19 20 21 21 20 20 20 20 20 19 17 15 12 10 8 6 6 7 10 12
13 12 12 11 10 9 9 9 10 11 11 12 12 12 12 12 11 10 9 9 8 8 9 9 10 12 14 15 17 18 20 20 20 20 19 19 19 19 18 17 15 12 10 8 6 5 6 7 10
12 11 10 9 9 8 8 8 9 12 12 12 12 12 12 12 12 11 10 10 9 9 9 9 11 12 14 15 17 18 19 19 20 19 19 19 19 18 17 16 15 13 11 9 6 5 4 5 8
12 9 8 8 8 8 8 9 10 14 13 13 12 12 11 11 12 12 11 10 10 9 9 10 11 12 14 15 16 17 18 19 19 19 18 18 18 18 17 16 15 13 11 9 7 5 4 4 6
9 7 7 6 7 7 8 11 11 14 15 14 13 12 11 11 12 12 12 11 11 10 10 10 11 12 14 15 16 17 18 18 18 18 18 18 18 18 17 16 15 14 12 9 8 6 5 4 5
7 7 5 5 5 7 9 14 14 16 16 15 14 13 12 12 12 12 12 12 11 11 10 10 11 12 13 14 15 16 17 18 18 18 18 18 18 18 17 16 15 14 12 10 8 7 6 5 4
8 7 7 7 6 7 10 14 17 18 17 16 15 14 13 13 12 13 13 13 12 12 11 11 11 12 13 14 14 15 16 17 17 17 18 17 17 17 17 16 15 14 12 11 9 7 6 6 5
8 8 9 11 10 9 8 12 19 20 18 16 15 15 15 14 14 13 13 13 13 12 12 12 11 11 12 13 14 15 15 16 17 17 18 18 17 17 17 16 15 14 13 11 10 8 7 6 6
10 10 11 12 12 11 9 10 16 21 21 18 16 16 16 15 15 15 14 14 14 14 13 12 12 12 12 13 13 14 15 15 16 17 17 17 17 17 16 16 15 15 14 12 11 9 8 7 6
10 11 12 14 14 14 15 14 17 21 22 20 18 17 16 16 15 15 16 16 15 15 14 13 12 12 12 12 13 14 14 15 16 17 17 17 17 17 16 16 15 15 14 13 12 11 9 8 7
12 14 15 16 16 17 19 17 18 22 22 20 19 19 18 17 17 16 17 17 17 16 15 14 13 13 12 12 13 13 14 14 15 16 17 17 17 16 16 16 15 15 14 14 13 12 10 9 8
Wind_Direction
265 272 269 285 295 305 290 272 247 257 256 265 271 274 284 288 294 296 299 303 305 304 301 299 298 296 293 290 285 284 283 278 277 276 275 269 262 258 257 257 253 252 252 253 252 254 255 255 254
258 265 254 264 275 294 280 283 252 260 263 269 274 281 291 293 295 297 299 302 303 302 299 298 297 294 292 289 286 286 284 282 280 279 277 275 268 262 259 259 256 254 254 253 252 252 254 255 252
254 256 248 257 266 279 280 279 265 266 271 267 271 283 291 296 297 298 300 301 302 302 298 298 297 293 290 287 286 285 283 283 282 280 278 276 273 267 264 262 259 257 256 255 252 251 252 253 250
250 254 254 253 255 267 272 264 267 270 273 269 272 286 290 295 298 300 301 302 303 303 301 301 299 297 295 292 289 287 285 285 283 281 278 277 275 273 268 264 262 259 259 257 256 252 251 251 248
245 251 253 257 262 265 272 260 259 266 270 272 283 289 292 295 298 301 303 305 306 306 305 305 305 304 302 299 297 294 291 288 285 283 281 280 277 273 271 268 264 262 261 259 258 252 251 251 249
243 246 250 255 261 266 264 260 264 271 274 280 287 293 295 298 300 302 305 307 309 310 310 311 312 312 310 309 306 303 300 296 292 288 285 282 280 276 273 269 267 264 263 259 257 254 253 251 249
241 244 243 250 254 263 262 260 265 277 284 285 289 295 299 300 302 305 306 309 311 313 315 317 318 319 319 319 316 313 310 306 302 297 292 288 284 282 277 273 270 267 265 261 259 256 252 249 248
240 244 243 251 256 265 267 265 269 284 294 294 294 297 299 301 303 305 308 311 313 316 319 322 324 325 326 326 325 324 322 318 312 307 302 297 292 287 282 278 273 268 265 262 261 257 253 249 248
235 241 245 250 249 257 268 267 273 285 295 296 299 302 303 303 304 305 308 311 314 318 323 327 330 332 333 336 334 332 330 326 322 317 311 305 301 296 289 284 279 273 268 263 260 256 252 248 246
236 239 244 245 248 255 265 275 283 289 291 292 297 300 302 302 303 304 307 312 315 320 327 331 335 337 339 340 339 336 334 331 327 323 319 313 307 302 297 290 284 278 271 265 260 256 253 247 244
233 236 242 248 256 267 271 282 289 292 292 295 297 298 300 299 300 302 307 311 317 324 329 334 337 340 342 342 341 339 337 334 331 327 322 317 312 306 301 295 288 280 273 267 261 255 251 247 244
232 238 245 249 257 266 273 281 288 292 295 298 299 300 300 298 296 301 306 310 319 326 332 336 340 342 343 343 343 341 339 337 334 329 326 322 317 313 307 300 292 284 275 268 261 256 250 247 243
231 239 243 247 254 261 271 278 283 290 293 298 301 301 301 296 293 298 303 308 317 325 333 338 341 342 344 344 344 343 341 339 337 333 330 327 323 319 313 306 298 288 279 270 261 255 249 246 242
233 239 242 247 256 263 272 278 284 289 292 296 301 299 298 294 292 294 298 305 314 324 331 336 339 342 344 344 344 344 343 341 339 337 334 330 327 324 320 313 303 292 282 274 263 256 250 246 241
228 240 247 251 256 266 270 276 282 290 292 294 299 299 296 292 292 292 294 300 310 320 328 335 339 342 344 344 345 345 344 342 340 339 338 335 332 329 325 320 311 299 287 277 265 256 250 245 239
227 237 245 248 254 263 270 278 280 290 293 296 298 295 292 291 290 289 289 295 306 317 326 333 338 342 344 345 346 347 346 345 343 342 341 339 337 335 331 327 320 309 295 283 270 258 250 243 237
224 236 248 254 256 264 270 279 282 292 295 297 296 290 286 288 289 286 285 291 300 310 321 328 334 339 342 345 347 347 348 347 347 345 345 343 342 340 337 334 328 318 304 290 272 260 249 241 234
216 229 243 255 259 263 271 278 284 288 294 297 297 292 288 288 289 283 281 286 293 304 315 323 330 336 340 343 346 346 347 347 347 347 346 346 346 345 343 342 336 328 317 303 280 262 248 239 232
217 227 241 254 264 271 275 280 288 294 293 292 291 290 289 288 285 276 276 280 288 299 309 318 326 332 337 341 344 345 346 348 348 348 348 348 348 348 347 347 344 340 332 319 294 273 250 237 230
219 227 240 252 262 272 277 283 289 295 299 295 293 290 288 285 279 270 272 275 283 293 303 314 322 328 334 339 342 344 346 348 348 349 349 350 350 350 350 350 350 349 345 334 313 286 257 241 235
215 229 236 249 259 271 279 286 293 297 300 301 296 292 287 282 274 266 269 271 278 287 299 309 319 326 332 337 340 343 346 347 348 349 350 351 352 352 353 353 354 353 350 342 328 302 269 242 236
218 229 244 261 273 287 300 309 311 301 299 297 292 288 282 279 273 268 266 267 272 283 294 305 315 323 330 335 339 342 345 347 349 350 351 352 354 355 355 356 356 355 353 349 338 322 293 256 242
223 233 252 268 284 293 305 313 310 301 301 298 294 286 279 276 271 267 264 264 269 279 290 301 311 321 328 333 337 341 344 346 348 350 351 352 354 356 357 358 358 356 355 353 348 338 319 280 254
227 238 255 281 299 312 312 311 306 293 300 302 299 289 279 273 269 265 262 262 267 276 286 297 308 318 326 332 336 340 343 345 347 349 351 352 354 356 358 359 359 358 358 355 350 342 330 300 267
229 241 263 288 309 315 311 308 297 291 300 299 296 290 282 274 268 264 261 262 265 273 283 293 304 315 323 329 335 339 342 345 347 349 350 352 353 355 358 359 360 359 359 358 355 350 343 327 290
235 243 259 271 283 306 313 308 301 303 299 296 292 289 284 278 272 264 260 260 263 270 279 289 299 310 319 327 332 337 341 345 347 350 352 352 354 355 357 359 0 0 0 359 355 349 342 331 314
251 252 258 271 280 290 297 295 300 299 298 296 291 287 283 278 273 267 261 260 262 267 275 284 293 304 314 323 330 334 339 343 346 349 351 353 354 355 357 358 359 0 360 359 357 351 340 329 317
266 268 267 272 278 281 279 283 287 291 300 302 293 287 282 277 272 267 262 259 260 264 270 279 287 298 309 319 326 331 335 340 344 347 349 352 354 355 357 358 359 360 360 357 354 350 345 334 323
278 277 278 281 284 285 284 282 286 292 296 296 291 288 284 278 271 266 262 259 260 263 267 274 282 291 301 312 321 326 331 336 341 344 347 350 353 355 355 356 357 358 358 357 354 350 344 338 328
288 285 283 281 281 281 285 295 294 294 295 291 287 285 283 280 273 266 261 258 260 261 265 270 277 284 294 305 314 320 326 331 336 342 345 347 349 352 354 355 355 356 356 355 354 352 348 342 335
Height
5873 5873 5874 5875 5875 5875 5874 5875 5876 5876 5877 5877 5878 5878 5878 5879 5879 5881 5879 5877 5877 5877 5876 5875 5874 5873 5872 5871 5871 5870 5869 5869 5868 5868 5868 5867 5867 5867 5867 5867 5867 5867 5867 5868 5868 5869 5870 5870 5871
5872 5873 5874 5874 5874 5874 5874 5874 5875 5876 5876 5876 5877 5877 5878 5878 5878 5877 5876 5876 5875 5875 5874 5873 5872 5871 5870 5869 5868 5867 5866 5866 5865 5864 5864 5863 5863 5863 5863 5863 5863 5863 5864 5864 5865 5866 5867 5867 5868
5871 5872 5873 5873 5873 5874 5874 5874 5874 5875 5875 5875 5876 5877 5877 5877 5876 5875 5875 5874 5873 5873 5871 5870 5869 5868 5867 5866 5865 5864 5863 5862 5861 5860 5859 5859 5859 5859 5859 5859 5859 5859 5860 5860 5861 5862 5863 5864 5865
5870 5871 5872 5873 5873 5873 5873 5873 5874 5874 5875 5875 5875 5876 5875 5875 5874 5874 5873 5872 5871 5870 5869 5867 5866 5865 5864 5862 5861 5860 5859 5858 5857 5856 5855 5855 5854 5854 5854 5854 5854 5855 5855 5856 5857 5858 5859 5860 5861
5869 5871 5872 5872 5871 5871 5872 5873 5873 5873 5874 5874 5874 5874 5874 5873 5873 5872 5871 5870 5869 5868 5866 5865 5864 5862 5861 5859 5858 5856 5855 5854 5853 5852 5851 5850 5850 5849 5849 5849 5849 5849 5850 5851 5852 5854 5855 5856 5857
5868 5869 5870 5870 5870 5870 5871 5871 5872 5872 5872 5872 5873 5873 5872 5872 5871 5870 5869 5868 5866 5865 5864 5862 5861 5859 5858 5856 5854 5853 5851 5850 5848 5847 5846 5845 5844 5844 5844 5844 5844 5844 5845 5846 5847 5849 5850 5852 5853
5866 5867 5868 5868 5867 5868 5869 5870 5870 5870 5870 5871 5871 5871 5870 5869 5869 5868 5867 5865 5864 5863 5862 5860 5859 5857 5855 5853 5852 5850 5848 5846 5845 5843 5842 5840 5839 5839 5838 5838 5838 5838 5839 5840 5841 5842 5845 5847 5849
5864 5866 5865 5866 5866 5867 5868 5868 5869 5869 5869 5869 5869 5869 5869 5868 5867 5866 5865 5864 5862 5861 5860 5858 5857 5855 5854 5852 5849 5847 5846 5843 5841 5839 5838 5836 5834 5834 5833 5832 5832 5832 5833 5833 5834 5836 5838 5841 5843
5861 5864 5863 5863 5864 5865 5866 5867 5867 5867 5868 5868 5867 5867 5867 5866 5865 5864 5863 5862 5861 5860 5858 5856 5855 5853 5852 5850 5848 5846 5843 5841 5839 5836 5834 5832 5830 5829 5828 5827 5826 5826 5826 5827 5828 5830 5832 5835 5838
5858 5860 5861 5861 5862 5863 5864 5864 5865 5866 5866 5866 5866 5865 5865 5864 5863 5862 5861 5860 5859 5858 5856 5855 5853 5852 5850 5848 5846 5844 5841 5839 5836 5833 5831 5828 5826 5824 5822 5821 5820 5819 5820 5820 5822 5824 5826 5829 5832
5855 5857 5857 5857 5859 5860 5862 5863 5864 5864 5864 5864 5864 5864 5863 5862 5861 5861 5860 5859 5857 5856 5855 5854 5852 5850 5849 5847 5844 5842 5839 5837 5834 5831 5828 5825 5822 5819 5817 5815 5814 5813 5813 5814 5815 5817 5820 5823 5826
5852 5854 5855 5856 5858 5860 5861 5862 5863 5863 5863 5862 5862 5862 5861 5860 5860 5859 5858 5857 5856 5855 5854 5852 5851 5849 5847 5845 5843 5840 5837 5834 5831 5828 5825 5821 5818 5815 5813 5810 5809 5808 5807 5808 5809 5811 5814 5817 5820
5849 5851 5853 5855 5857 5859 5860 5861 5861 5861 5861 5861 5860 5860 5859 5859 5858 5857 5856 5856 5855 5854 5853 5851 5850 5848 5846 5844 5841 5839 5836 5833 5829 5825 5822 5818 5815 5812 5809 5806 5804 5802 5802 5802 5804 5805 5808 5811 5814
5846 5849 5851 5854 5855 5857 5858 5859 5860 5859 5859 5859 5859 5858 5857 5857 5856 5856 5855 5854 5854 5853 5852 5851 5849 5847 5845 5843 5840 5837 5834 5831 5827 5823 5819 5815 5811 5808 5805 5802 5800 5798 5797 5797 5798 5800 5802 5805 5808
5843 5847 5850 5852 5854 5855 5857 5857 5857 5857 5857 5857 5856 5856 5855 5855 5855 5854 5854 5853 5852 5852 5851 5850 5848 5846 5844 5842 5839 5836 5833 5829 5825 5821 5817 5813 5809 5805 5801 5798 5796 5794 5793 5793 5793 5795 5797 5800 5803
5842 5846 5849 5850 5852 5853 5856 5856 5855 5855 5855 5855 5854 5854 5854 5853 5853 5853 5852 5852 5851 5851 5850 5849 5847 5845 5844 5841 5838 5835 5832 5828 5824 5819 5815 5811 5806 5802 5799 5795 5793 5791 5790 5789 5789 5790 5792 5795 5798
5842 5845 5847 5848 5850 5851 5853 5853 5853 5853 5853 5853 5852 5852 5852 5852 5851 5851 5851 5851 5850 5850 5849 5848 5846 5845 5843 5840 5837 5834 5831 5827 5822 5818 5814 5809 5805 5801 5797 5793 5790 5788 5787 5786 5786 5787 5788 5791 5794
5841 5844 5846 5847 5847 5849 5850 5851 5851 5851 5851 5851 5850 5850 5850 5850 5850 5849 5849 5849 5849 5849 5848 5847 5846 5844 5842 5839 5837 5833 5830 5826 5821 5817 5813 5808 5804 5799 5795 5792 5788 5786 5784 5783 5783 5784 5785 5788 5790
5839 5842 5843 5845 5845 5847 5848 5849 5850 5849 5850 5849 5849 5848 5848 5848 5848 5848 5848 5848 5848 5847 5847 5846 5845 5843 5841 5839 5836 5833 5829 5825 5821 5816 5812 5807 5803 5798 5794 5791 5787 5785 5783 5782 5782 5782 5783 5785 5787
5838 5841 5842 5843 5845 5846 5847 5848 5848 5848 5848 5848 5847 5847 5846 5846 5846 5846 5846 5846 5846 5846 5846 5845 5844 5842 5840 5837 5835 5831 5828 5824 5820 5816 5811 5807 5802 5798 5794 5790 5787 5784 5782 5781 5780 5781 5781 5783 5785
5838 5840 5841 5843 5844 5845 5846 5847 5847 5846 5846 5846 5846 5845 5845 5844 5844 5844 5845 5845 5845 5845 5844 5843 5842 5841 5839 5836 5834 5830 5827 5823 5819 5815 5811 5807 5802 5798 5794 5790 5787 5784 5782 5780 5779 5779 5780 5781 5783
5836 5839 5841 5843 5844 5844 5845 5846 5846 5845 5845 5845 5844 5844 5843 5843 5842 5842 5843 5843 5843 5843 5843 5842 5841 5840 5838 5835 5833 5830 5826 5823 5819 5815 5811 5807 5802 5798 5794 5790 5787 5784 5782 5780 5779 5779 5779 5780 5781
5837 5839 5841 5842 5843 5844 5844 5845 5845 5843 5843 5842 5842 5841 5841 5841 5840 5841 5841 5841 5842 5842 5841 5841 5840 5838 5836 5834 5831 5829 5825 5822 5818 5814 5811 5807 5803 5799 5795 5791 5787 5785 5782 5780 5779 5778 5778 5779 5780
5837 5840 5841 5842 5843 5844 5844 5844 5844 5842 5840 5840 5839 5839 5839 5839 5839 5838 5839 5839 5840 5840 5839 5839 5838 5837 5835 5833 5830 5828 5825 5821 5818 5814 5810 5807 5803 5799 5795 5792 5788 5785 5783 5781 5779 5778 5778 5778 5778
5838 5840 5841 5841 5842 5842 5843 5842 5842 5840 5839 5838 5837 5837 5836 5836 5836 5836 5837 5837 5838 5838 5838 5837 5836 5835 5833 5831 5829 5827 5824 5821 5817 5814 5810 5807 5803 5799 5796 5792 5789 5786 5783 5781 5780 5778 5778 5777 5778
5837 5839 5840 5840 5840 5841 5841 5841 5840 5837 5836 5836 5835 5835 5834 5834 5834 5834 5834 5835 5835 5836 5836 5835 5834 5833 5832 5830 5828 5826 5823 5820 5817 5813 5810 5806 5803 5799 5796 5793 5790 5787 5784 5782 5780 5779 5778 5777 5777
5836 5837 5838 5839 5839 5840 5841 5841 5837 5834 5833 5833 5832 5832 5831 5831 5831 5831 5832 5832 5833 5833 5833 5833 5833 5832 5830 5829 5827 5824 5822 5819 5816 5813 5810 5806 5803 5799 5796 5793 5790 5787 5785 5782 5780 5779 5778 5777 5776
5836 5836 5837 5837 5837 5837 5838 5838 5835 5831 5830 5830 5829 5829 5828 5828 5828 5828 5829 5829 5830 5830 5831 5831 5830 5830 5828 5827 5825 5823 5821 5818 5815 5812 5809 5806 5803 5799 5796 5793 5790 5787 5785 5783 5781 5779 5778 5776 5776
5834 5834 5834 5834 5834 5834 5833 5835 5832 5829 5828 5827 5826 5825 5824 5825 5825 5825 5826 5826 5827 5827 5828 5828 5828 5827 5826 5825 5823 5822 5820 5817 5815 5812 5809 5806 5802 5799 5796 5793 5790 5788 5785 5783 5780 5779 5777 5776 5775
5831 5832 5831 5831 5831 5830 5829 5832 5828 5826 5823 5822 5822 5821 5821 5821 5821 5821 5822 5822 5823 5824 5825 5825 5825 5824 5824 5823 5821 5820 5818 5816 5813 5811 5808 5805 5802 5799 5796 5793 5790 5787 5785 5782 5780 5778 5776 5775 5773